Epoch = 2000 Sept.13.0 TT T = 2000 Sept. 8.47012 TT Peri. = 348.31385 e = 0.5784070 Node = 340.12424 2000.0 q = 2.0886709 AU Incl. = 5.60581 a = 4.9542353 AU n = 0.08937975 P = 11.03 years
m1 = 12.0 + 5 logΔ + 20.0 log r